Location: Poughquag
(41.6090°N, 73.6820°W)
Time: 17:23:48
(UTC-04:00)

STARLINK-1373 - Pass Details

Date: 29 May 2020
Orbit: 548 x 550 km, 53.0° (Epoch: 19 September)

Event Time Altitude Azimuth Distance (km) Brightness Sun altitude
Exits shadow 01:50:12 41° 72° (ENE) 792 4.6 -25.3°
Drops below altitude 10° 01:53:01 10° 57° (ENE) 1,808 6.9 -25.1°
Sets 01:55:16 0° 54° (NE) 2,708 7.9 -25.0°
